Location: Wingville
(42.9917°N, 90.4915°W)
Time: 10:58:46
(UTC+00:00)

FO-29 - Visible Passes

Search period start: 30 June 2022 00:00
Search period end: 10 July 2022 00:00
Orbit: 801 x 1320 km, 98.5° (Epoch: 29 June)

Date Brightness Start Highest point End Pass type
(mag) Time Alt. Az. Time Alt. Az. Time Alt. Az.
05 Jul 12.9 02:42:53 10° W 02:44:15 10° W 02:45:37 10° WNW visible
07 Jul 12.8 02:36:44 10° W 02:39:10 12° W 02:41:37 10° WNW visible
09 Jul 12.8 02:30:59 10° WSW 02:34:06 13° W 02:37:15 10° WNW visible
